Tucumcari, NM

10:50 AM MST on February 12, 2016 (GMT -0700)
Tucumcari Municipal

Weather History for KTCC - November, 2012

Change the Weather History Date:

Thursday, November 1, 2012

  Actual Average Record
Temperature  
Mean Temperature 62 °F -  
Max Temperature 82 °F 67 °F 85 °F (1950)
Min Temperature 42 °F 39 °F 16 °F (1991)
Degree Days  
Heating Degree Days 3    
Growing Degree Days 12 (Base 50)    
Moisture  
Dew Point 17 °F    
Average Humidity 22    
Maximum Humidity 40    
Minimum Humidity 7    
Precipitation  
Precipitation 0.00 in - - ()
Sea Level Pressure  
Sea Level Pressure 29.94 in    
Wind  
Wind Speed 6 mph (WSW)    
Max Wind Speed 15 mph    
Max Gust Speed 23 mph    
Visibility 10 miles    
Events      
Averages and records for this station are not official NWS values.
T = Trace of Precipitation, MM = Missing Value Source: NWS Daily Summary

Daily Weather History Graph

Daily Weather History Graph

Search for Another Location

Airport or City:

Trip Planner

Search our weather history database for the weather conditions in past years. The results will help you decide how hot, cold, wet, or windy it might be!

Date:

Astronomy

Nov. 01, 2012 Rise Set
Actual Time 7:16 AM MDT 5:59 PM MDT
Civil Twilight 6:49 AM MDT 6:25 PM MDT
Nautical Twilight 6:19 AM MDT 6:55 PM MDT
Astronomical Twilight 5:50 AM MDT 7:25 PM MDT
Moon 8:02 PM MDT (11/1) 9:46 AM MDT (11/1)
Length of Visible Light 11h 35m
Length of Day
10h 43m
Waning Gibbous, 92% of the Moon is Illuminated
Nov 1
Waning Gibbous
Nov 6
Last Quarter
Nov 13
New
Nov 20
First Quarter
Nov 28
Full

Hourly Weather History & Observations

Time (MDT) Temp. Windchill Dew Point Humidity Pressure Visibility Wind Dir Wind Speed Gust Speed Precip Events Conditions
12:53 AM 46.9 °F - 16.0 °F 29% 30.01 in 10.0 mi SW 3.5 mph - N/A   Clear
1:53 AM 46.0 °F - 16.0 °F 30% 30.01 in 10.0 mi Calm Calm - N/A   Clear
2:53 AM 43.0 °F 41.3 °F 16.0 °F 34% 30.00 in 10.0 mi West 3.5 mph - N/A   Clear
3:53 AM 44.1 °F - 18.0 °F 35% 29.99 in 10.0 mi Calm Calm - N/A   Clear
4:53 AM 43.0 °F 41.3 °F 17.1 °F 35% 29.99 in 10.0 mi North 3.5 mph - N/A   Clear
5:53 AM 45.0 °F 43.5 °F 19.9 °F 37% 30.01 in 10.0 mi NW 3.5 mph - N/A   Clear
6:53 AM 42.1 °F 37.7 °F 19.0 °F 40% 30.04 in 10.0 mi WNW 6.9 mph - N/A   Clear
7:53 AM 45.0 °F 40.6 °F 21.0 °F 39% 30.05 in 10.0 mi West 8.1 mph - N/A   Clear
8:53 AM 53.1 °F - 21.9 °F 30% 30.05 in 10.0 mi West 8.1 mph - N/A   Clear
9:53 AM 59.0 °F - 21.9 °F 24% 30.04 in 10.0 mi West 8.1 mph - N/A   Clear
10:53 AM 64.9 °F - 21.9 °F 19% 30.01 in 10.0 mi West 5.8 mph - N/A   Clear
11:53 AM 70.0 °F - 23.0 °F 17% 29.98 in 10.0 mi West 4.6 mph - N/A   Clear
12:53 PM 75.9 °F - 21.0 °F 13% 29.93 in 10.0 mi West 8.1 mph - N/A   Clear
1:53 PM 81.0 °F - 16.0 °F 9% 29.87 in 10.0 mi SW 9.2 mph - N/A   Clear
2:53 PM 82.0 °F - 12.0 °F 7% 29.85 in 10.0 mi WSW 10.4 mph 23.0 mph N/A   Clear
3:53 PM 82.0 °F - 10.0 °F 7% 29.83 in 10.0 mi SW 15.0 mph - N/A   Clear
4:53 PM 80.1 °F - 10.9 °F 7% 29.83 in 10.0 mi SSW 11.5 mph - N/A   Clear
5:53 PM 73.9 °F - 12.9 °F 10% 29.84 in 10.0 mi SSW 10.4 mph - N/A   Clear
6:53 PM 64.0 °F - 12.9 °F 14% 29.89 in 10.0 mi SSW 5.8 mph - N/A   Clear
7:53 PM 60.1 °F - 12.9 °F 16% 29.89 in 10.0 mi SW 8.1 mph - N/A   Clear
8:53 PM 62.1 °F - 15.1 °F 16% 29.87 in 10.0 mi SW 13.8 mph - N/A   Clear
9:53 PM 60.1 °F - 16.0 °F 18% 29.87 in 10.0 mi WSW 11.5 mph - N/A   Clear
10:53 PM 57.0 °F - 17.1 °F 21% 29.86 in 10.0 mi SW 11.5 mph - N/A   Clear
11:53 PM 55.9 °F - 18.0 °F 23% 29.86 in 10.0 mi West 10.4 mph - N/A   Clear